Flag for U.S.A. Weather past 2 weeks in Modesto, California, U.S.A.

Now
77 °F

Sunny.


Feels Like: 78 °F
Forecast: 55 / 83 °F
Wind: 12 mph from Northwest

Location: Modesto City-County-Sham Field


UV Index: 5 (Moderate)

Visibility: 10 mi


Pressure: 29.86 "Hg

Humidity: 31%

Dew point: 44 °F

Location of ModestoLocation

Historic Weather in Modesto

°F

Modesto temperature yesterday

Maximum temperature yesterday: 83 °F (at 2:53 PM)
Minimum temperature yesterday: 55 °F (at 6:53 AM)
Average temperature yesterday: 69 °F

Past Weeks' High & Low Weather Summary

 TemperatureHumidityPressure
High86 °F (Apr 8, 4:53 PM)100% (Apr 2, 2:53 AM)30.22 "Hg (Apr 2, 2:53 AM)
Low41 °F (Apr 2, 6:53 AM)19% (Apr 15, 2:53 PM)29.78 "Hg (Apr 11, 5:53 PM)
Average62 °F60%29.99 "Hg
* Reported Apr 1 10:53 AM — Apr 16 10:53 AM, Modesto, Weather by CustomWeather, © 2014

Note: Actual official high and low records may vary slightly from our data, if they occured in-between our weather recording intervals... More about our weather records

Advertising

Historic Weather Conditions — Data for Previous 24 hours

 ConditionsComfort  
Time TempWeatherWind HumidityBarometerVisibility
10:53 AM
Apr 16
73 °FSunny.13 mph41%29.88 "Hg10 mi
9:53 AM68 °FSunny.13 mph49%29.87 "Hg10 mi
8:53 AM65 °FSunny.12 mph52%29.88 "Hg10 mi
7:53 AM59 °FSunny.9 mph64%29.88 "Hg10 mi
6:53 AM56 °FClear.7 mph75%29.86 "Hg10 mi
5:53 AM57 °FClear.7 mph69%29.84 "Hg10 mi
4:53 AM58 °FClear.7 mph67%29.85 "Hg10 mi
3:53 AM58 °FClear.6 mph70%29.85 "Hg10 mi
2:53 AM59 °FClear.3 mph69%29.84 "Hg10 mi
1:53 AM60 °FClear.5 mph69%29.85 "Hg10 mi
12:53 AM60 °FClear.3 mph67%29.85 "Hg10 mi
11:53 PM
Apr 15
63 °FClear.6 mph52%29.85 "Hg10 mi
10:53 PM64 °FClear.6 mph50%29.85 "Hg10 mi
9:53 PM67 °FClear.10 mph51%29.86 "Hg10 mi
8:53 PM70 °FClear.8 mph42%29.85 "Hg10 mi
7:53 PM73 °FSunny.9 mph27%29.83 "Hg10 mi
6:53 PM78 °FSunny.12 mph29%29.83 "Hg10 mi
5:53 PM81 °FSunny.10 mph21%29.84 "Hg10 mi
4:53 PM83 °FSunny.10 mph19%29.85 "Hg10 mi
3:53 PM83 °FSunny.13 mph19%29.87 "Hg10 mi
2:53 PM83 °FSunny.12 mph19%29.90 "Hg10 mi
1:53 PM82 °FSunny.10 mph22%29.92 "Hg10 mi
12:53 PM80 °FSunny.8 mph25%29.93 "Hg10 mi
Weather by CustomWeather, © 2014

See weather overview